COSMOS 1275 DEB, 12709

Orbit data source: Space-Track

COSMOS 1275 DEB, 12709 is space debris in LEO originally from a launch on Thu, 04 Jun 1981 UTC launched from the Plesetsk Missile And Space Complex (PKMTR). Debris objects in space refer to the collection of defunct objects orbiting the Earth. Examples of debris include non-operational satellites, rocket bodies, and fragments generated from explosions, collisions, or faulty payload assembly.

Loading next visibility...
Identifier
12709, 1981-053BD
Orbit
LEO
Country
Flag of CISCIS
Related business
Manufacturer
Unknown
Mission
Spacecraft
Bus & Motor
Unknown
Mass
Unknown
Launch date (UTC)
1981-06-04 (45 years ago)
Launch vehicle
Unknown
Launch site
Plesetsk Missile And Space Complex (PKMTR)
Object type
Payload
Rocket body
Debris
Shape & HBR
Unknown shape, 0.3 m
Radar Cross Section
Medium (>0.1 m² and <1 m²)

Expand to show TLE details & history
Last TLE update: 17 hours ago

TLE from 17 hours ago
0 COSMOS 1275 DEB
1 12709U 81053BD  26206.38518987  .00000218  00000-0  24600-3 0  9997
2 12709  82.9695 253.8018 0120160 257.9368 111.7516 13.63586351228114
Epoch: 2026-07-25T09:14Z
TLE epoch observation values (Epoch: 2026-07-25T09:14:40.404Z)
Latitude
10.82754°
Longitude
173.37983°
Altitude
1,058.696 km
Speed
7.307 km/s
True Right ascension
17h 00m 35s
True Declination
10° 46' 01"
Sunlit
Object was in full shadow at epoch
Visualization orbit readout
Latitude
Unknown
Longitude
Unknown
Altitude
Unknown
Speed
Unknown
Apparent Right ascension
Unknown
Apparent Declination
Unknown
Sunlit
N/A
Visualization observer readout
Local Sidereal Time
15:20:39
Azimuth
Unknown
Elevation
Unknown
Doppler factor
Unknown
Orbital elements
Apogee altitude
1,108.744 km
Perigee altitude
930.956 km
Semi-major axis
7,397.987 km
Eccentricity
0.01202
Inclination
82.9695°
RAAN
253.8018°
Arg. of periapsis
257.9368°
True anomaly
113.02331°
Mean anomaly
111.7516°
Eccentric anomaly
112.38817°
Mean motion
3.41093 °/min
Orbital period
105.54 mins
BSTAR
0.000246
Loading maneuver chart data...
Computing Atmospheric mass density...

Documentation

Showing up to 5 results
|